Temp
13 13 13 13 13 12 12 12 12 12 12 11 11 11 10 10 10 10 10 11 11 11 11 11 11 11 11 11 11 10 10 10 10 10 10 10 10 10 9 9 9 9
13 13 13 13 13 13 12 12 12 12 12 12 11 11 10 10 10 10 10 11 11 11 11 11 11 11 11 11 11 11 10 11 10 10 10 10 10 10 9 9 9 9
13 13 13 13 13 13 13 13 12 12 12 12 12 11 11 10 10 10 10 11 11 11 12 12 11 11 11 11 11 11 11 11 10 10 10 10 10 10 9 9 9 9
13 13 13 13 13 13 13 13 13 13 12 12 12 12 11 11 11 10 11 11 11 12 12 12 11 11 11 11 11 11 11 11 10 10 10 10 10 10 9 9 9 9
13 13 13 13 13 13 13 13 13 13 13 13 12 12 12 11 11 11 11 12 12 12 12 12 12 11 11 11 11 11 11 11 10 10 10 10 10 10 9 9 9 8
14 13 13 13 13 13 13 13 13 13 13 13 12 12 12 12 12 12 12 12 12 12 12 12 12 12 11 11 11 11 11 11 11 11 10 10 10 9 9 9 9 9
14 14 13 13 13 13 13 13 13 13 13 13 12 12 12 12 12 12 12 12 12 12 12 12 12 12 11 11 11 11 11 11 11 11 10 10 10 9 9 9 9 9
14 13 13 13 13 13 13 13 13 13 13 13 13 13 12 12 12 12 12 12 12 12 12 12 12 12 12 11 11 11 11 11 11 11 10 10 10 10 9 9 9 9
13 14 14 14 14 14 14 13 13 13 13 13 13 13 12 12 13 13 12 12 12 12 12 12 12 12 12 11 11 11 11 11 11 11 10 10 10 10 10 10 9 9
14 14 14 14 14 14 14 13 13 13 13 13 13 13 13 13 13 13 13 13 12 12 12 12 12 12 12 12 11 11 11 11 11 11 11 10 10 10 10 10 9 9
14 14 15 15 15 14 14 14 13 13 13 13 13 13 13 13 13 13 13 13 12 12 12 12 12 12 12 12 12 11 11 11 11 11 11 11 10 10 10 9 9 9
14 15 15 15 15 15 14 14 13 13 14 14 14 14 13 13 13 13 13 13 12 12 12 12 12 12 12 12 12 12 11 11 11 11 11 11 11 10 10 9 9 8
15 15 15 15 15 15 15 14 14 14 14 14 14 14 14 13 13 13 13 13 12 12 12 12 12 12 12 12 12 12 12 12 11 11 11 11 11 10 10 9 9 9
15 15 15 15 15 15 15 15 14 14 14 14 14 14 14 14 13 13 13 13 12 12 12 12 12 12 12 12 12 12 12 12 12 11 11 11 11 10 10 10 10 10
15 15 15 15 15 15 16 15 15 15 14 14 14 14 14 14 13 13 13 13 13 13 13 13 13 12 12 12 12 12 12 12 12 12 11 11 11 10 10 10 11 11
15 15 15 15 15 15 16 16 15 15 15 15 15 14 14 14 14 13 13 13 13 13 13 13 13 12 12 12 12 12 12 12 12 12 12 11 11 11 11 11 11 11
16 15 15 15 15 15 16 16 15 15 15 15 15 14 14 14 14 14 13 13 13 13 13 13 13 12 12 12 12 12 12 12 12 12 12 11 11 11 11 12 11 11
16 16 16 16 15 15 15 15 15 15 16 15 15 15 15 14 14 14 14 13 13 13 13 13 13 13 12 12 12 12 12 12 12 12 12 12 11 11 12 12 11 10
16 16 16 16 15 15 15 15 15 16 16 16 15 15 15 15 15 14 14 14 13 13 13 13 13 13 12 12 12 12 12 12 12 12 12 12 12 12 12 12 11 10
16 16 16 16 15 15 15 15 15 16 16 16 16 15 15 15 15 14 14 14 14 13 13 13 13 13 13 12 12 12 13 13 13 12 12 12 12 12 12 12 11 10
17 17 16 16 15 15 15 15 15 16 16 16 16 15 15 15 15 15 14 14 14 14 13 13 13 13 13 13 12 13 13 13 13 12 12 12 12 12 12 12 12 11
17 17 16 16 16 15 15 15 15 15 16 15 15 15 15 15 15 15 14 14 14 14 14 13 13 13 13 13 13 13 13 13 13 13 12 12 12 12 12 12 12 12
18 17 17 16 16 15 15 15 15 15 15 15 15 15 15 15 15 15 15 14 14 14 14 14 13 13 13 13 13 13 13 13 13 13 12 12 12 12 12 12 12 12
18 17 17 16 16 16 16 15 15 15 15 15 15 15 15 15 15 15 14 14 14 14 14 14 13 13 13 13 13 13 13 13 13 13 12 12 12 12 12 12 12 12
18 17 17 17 17 17 16 16 15 15 15 15 15 15 15 15 15 15 14 14 14 14 14 14 14 13 13 13 13 13 13 13 13 13 13 12 12 12 12 12 12 12
17 17 17 17 17 17 17 16 15 15 15 15 15 15 15 15 15 15 15 14 14 14 14 14 14 14 14 13 13 13 13 13 13 13 13 12 12 12 12 12 12 12
Height
3180 3181 3182 3184 3186 3187 3189 3190 3191 3192 3193 3194 3195 3197 3198 3200 3201 3203 3204 3206 3207 3209 3210 3212 3213 3214 3215 3216 3217 3217 3218 3218 3218 3218 3219 3219 3219 3218 3218 3217 3217 3216
3177 3179 3180 3182 3183 3185 3187 3188 3189 3191 3192 3193 3194 3195 3196 3197 3199 3200 3202 3204 3206 3207 3209 3210 3212 3213 3214 3215 3216 3216 3216 3217 3217 3217 3218 3218 3218 3217 3217 3217 3216 3215
3174 3176 3178 3179 3181 3183 3185 3186 3188 3189 3190 3191 3192 3193 3194 3195 3197 3198 3200 3202 3204 3205 3207 3208 3210 3212 3213 3213 3214 3215 3215 3215 3216 3216 3216 3217 3217 3216 3216 3216 3215 3214
3171 3173 3175 3177 3179 3181 3183 3184 3185 3187 3188 3189 3190 3191 3192 3193 3194 3196 3198 3200 3202 3203 3205 3207 3208 3210 3211 3212 3213 3213 3213 3214 3214 3215 3215 3215 3215 3215 3214 3214 3214 3213
3169 3171 3173 3175 3177 3179 3180 3181 3183 3185 3186 3188 3189 3190 3190 3192 3192 3194 3196 3198 3200 3202 3203 3205 3207 3208 3209 3210 3211 3211 3211 3212 3213 3213 3213 3213 3213 3213 3213 3212 3212 3211
3166 3167 3169 3172 3174 3175 3177 3178 3180 3182 3184 3185 3186 3187 3189 3190 3191 3192 3194 3196 3198 3200 3201 3203 3205 3206 3207 3208 3209 3209 3210 3210 3211 3211 3212 3211 3211 3211 3211 3210 3210 3209
3163 3164 3166 3168 3170 3172 3173 3175 3177 3179 3181 3183 3184 3185 3186 3188 3190 3191 3193 3194 3196 3197 3199 3201 3202 3204 3205 3206 3207 3207 3208 3209 3209 3209 3209 3209 3209 3209 3209 3208 3208 3207
3160 3162 3163 3165 3166 3168 3170 3172 3174 3176 3178 3180 3181 3182 3184 3186 3188 3190 3191 3192 3193 3195 3197 3199 3200 3201 3202 3203 3204 3205 3206 3207 3207 3207 3207 3207 3207 3207 3206 3206 3205 3205
3158 3159 3160 3161 3163 3164 3166 3169 3171 3173 3176 3177 3179 3180 3182 3184 3186 3188 3190 3191 3192 3193 3195 3196 3198 3199 3199 3201 3202 3203 3204 3204 3204 3204 3205 3205 3205 3204 3204 3203 3203 3202
3156 3157 3158 3158 3160 3161 3163 3166 3168 3171 3173 3174 3176 3178 3179 3182 3184 3186 3188 3189 3190 3191 3192 3194 3195 3196 3197 3198 3200 3200 3201 3202 3202 3202 3202 3202 3202 3202 3202 3201 3200 3200
3153 3154 3155 3156 3157 3158 3160 3163 3165 3168 3170 3171 3173 3175 3177 3179 3181 3183 3185 3187 3188 3189 3190 3191 3192 3193 3194 3196 3197 3198 3198 3199 3199 3199 3200 3200 3200 3199 3199 3198 3197 3197
3151 3151 3152 3153 3155 3156 3158 3160 3162 3164 3167 3168 3170 3172 3174 3176 3178 3180 3182 3184 3186 3187 3188 3188 3189 3190 3191 3193 3194 3195 3196 3196 3197 3197 3197 3197 3197 3197 3196 3195 3194 3194
3148 3149 3150 3151 3153 3154 3156 3157 3159 3161 3163 3165 3167 3169 3171 3173 3175 3178 3180 3182 3184 3184 3185 3186 3186 3187 3188 3190 3191 3192 3193 3194 3194 3194 3194 3194 3194 3194 3193 3192 3191 3190
3146 3147 3148 3149 3151 3152 3153 3155 3156 3158 3160 3162 3164 3166 3168 3170 3172 3175 3177 3179 3180 3181 3182 3183 3183 3184 3186 3187 3188 3189 3190 3191 3191 3191 3191 3191 3191 3190 3189 3188 3187 3187
3143 3144 3145 3146 3148 3149 3150 3152 3153 3155 3157 3159 3161 3163 3165 3167 3169 3171 3173 3175 3176 3177 3178 3179 3179 3181 3183 3185 3186 3187 3187 3187 3188 3188 3188 3187 3187 3186 3185 3185 3184 3183
3140 3141 3142 3143 3144 3145 3147 3149 3150 3152 3154 3156 3158 3160 3162 3164 3165 3167 3168 3170 3171 3173 3174 3175 3176 3178 3180 3182 3183 3183 3184 3184 3184 3184 3184 3184 3183 3182 3182 3181 3180 3180
3135 3137 3138 3139 3140 3142 3144 3145 3147 3148 3150 3152 3154 3156 3158 3159 3161 3162 3164 3165 3167 3169 3170 3171 3173 3175 3178 3179 3180 3180 3180 3180 3180 3180 3180 3179 3179 3178 3178 3178 3178 3177
3131 3132 3134 3136 3137 3138 3140 3142 3144 3145 3146 3148 3150 3152 3154 3155 3156 3157 3159 3161 3163 3164 3166 3167 3170 3173 3175 3176 3176 3177 3177 3177 3176 3176 3176 3175 3175 3175 3175 3175 3175 3174
3127 3128 3130 3131 3133 3134 3136 3138 3139 3141 3142 3144 3146 3148 3149 3150 3151 3153 3155 3157 3158 3160 3162 3164 3166 3169 3171 3172 3172 3173 3173 3173 3172 3172 3172 3172 3172 3172 3172 3172 3171 3171
3123 3124 3125 3127 3129 3131 3132 3133 3135 3136 3138 3140 3142 3144 3144 3145 3147 3149 3151 3152 3154 3156 3158 3160 3163 3165 3167 3168 3168 3169 3169 3169 3168 3168 3168 3168 3169 3169 3169 3169 3168 3167
3118 3119 3121 3123 3125 3126 3127 3129 3131 3132 3134 3136 3137 3139 3140 3141 3143 3145 3147 3148 3150 3152 3154 3156 3159 3161 3162 3163 3165 3165 3165 3165 3164 3164 3164 3165 3165 3166 3166 3165 3164 3164
3114 3116 3117 3119 3120 3121 3122 3124 3126 3128 3130 3132 3133 3134 3136 3137 3139 3140 3142 3144 3146 3148 3150 3152 3155 3156 3158 3159 3161 3161 3161 3160 3160 3160 3161 3161 3162 3162 3162 3162 3161 3160
3111 3112 3113 3115 3116 3117 3118 3120 3122 3124 3126 3127 3129 3130 3131 3132 3134 3136 3138 3140 3142 3144 3146 3148 3150 3152 3154 3155 3157 3157 3157 3156 3156 3156 3156 3157 3158 3158 3158 3158 3157 3157
3108 3109 3111 3112 3113 3114 3115 3116 3118 3120 3122 3123 3124 3125 3126 3128 3130 3132 3134 3135 3137 3140 3142 3144 3146 3148 3150 3151 3152 3152 3152 3152 3152 3152 3152 3153 3154 3155 3155 3154 3154 3153
3105 3106 3108 3109 3110 3111 3112 3113 3114 3116 3118 3119 3121 3121 3123 3124 3126 3128 3129 3130 3133 3136 3138 3140 3141 3143 3145 3146 3147 3147 3147 3147 3147 3147 3148 3150 3150 3151 3151 3151 3150 3150
3102 3103 3105 3106 3107 3108 3109 3110 3111 3112 3114 3115 3116 3117 3118 3120 3121 3122 3124 3126 3128 3131 3133 3135 3136 3138 3139 3141 3141 3141 3141 3141 3142 3143 3145 3146 3147 3147 3147 3147 3147 3146
Wind_Speed
28 27 26 25 24 23 22 21 20 19 17 17 19 20 20 19 17 16 15 16 18 18 18 18 18 16 14 13 11 10 8 6 4 3 2 2 4 6 8 10 10 11
30 29 28 27 27 25 23 22 21 20 18 17 19 21 21 21 20 18 18 18 20 20 20 20 19 17 15 14 12 10 9 7 7 6 5 5 6 7 8 9 10 10
32 31 30 29 28 26 25 23 22 20 19 18 19 21 23 22 21 20 20 21 21 21 22 21 20 19 17 15 13 11 10 9 9 8 7 7 8 8 9 10 10 10
33 32 31 30 29 27 27 25 24 21 20 20 20 21 23 24 23 23 22 23 23 23 23 22 21 19 18 16 14 13 12 11 11 9 8 9 10 10 11 11 11 11
32 32 32 31 30 29 29 28 25 22 21 20 21 22 24 25 25 25 24 25 25 24 24 22 21 20 18 17 16 14 14 13 12 10 9 10 11 11 12 12 12 12
31 32 32 32 31 31 31 30 27 24 22 21 22 23 25 26 27 26 26 26 26 26 25 23 21 20 19 18 17 15 14 14 12 11 9 10 11 12 12 13 13 13
28 30 32 32 33 32 32 31 29 26 24 23 23 25 26 27 28 27 27 27 27 27 25 23 22 21 20 19 18 16 15 14 14 12 11 11 12 13 13 14 15 14
24 25 27 29 31 32 32 31 30 27 25 25 25 26 27 28 28 28 28 28 28 27 26 24 23 22 21 20 18 16 15 15 14 14 13 13 13 14 14 16 17 17
23 24 25 26 28 29 30 30 29 28 26 26 26 27 28 29 29 29 29 29 29 28 26 25 24 23 22 21 19 17 16 15 15 15 14 15 15 15 16 18 19 19
24 24 24 25 26 28 29 29 29 29 27 27 27 28 29 29 30 30 30 30 30 29 27 26 24 23 23 21 19 17 16 16 16 15 16 16 16 16 17 19 20 20
26 25 25 25 26 27 28 28 29 29 28 28 28 29 30 30 31 32 32 31 30 29 28 26 25 24 23 21 19 18 17 16 16 16 17 17 17 18 18 20 21 20
27 27 26 26 25 26 27 28 29 29 28 29 30 30 31 31 32 33 33 32 31 29 28 27 26 25 23 22 20 19 18 18 18 18 18 18 18 19 20 20 21 21
30 29 28 27 25 25 26 27 29 29 29 30 31 32 32 32 33 33 34 33 31 31 30 28 27 26 25 23 21 20 19 19 20 19 19 19 19 20 21 21 22 23
31 31 30 28 26 25 25 26 28 29 30 31 32 33 34 34 34 34 34 34 33 32 31 31 30 28 26 24 22 21 21 21 21 20 20 20 20 21 23 23 24 24
32 32 32 31 29 27 25 25 27 29 31 32 32 33 35 35 35 35 36 36 36 34 33 33 33 31 27 25 24 23 22 22 21 21 21 21 22 23 24 24 24 23
32 33 34 34 32 30 27 26 26 29 31 33 33 34 35 36 36 37 38 38 38 37 35 35 35 32 28 26 25 24 24 23 23 23 23 23 24 25 25 25 25 22
32 34 36 37 36 33 30 28 27 28 30 33 34 34 35 37 37 38 39 40 39 38 37 37 36 33 29 28 27 26 25 25 25 25 25 25 26 27 27 25 24 22
31 34 36 38 39 36 34 31 29 29 30 32 34 35 35 37 39 39 40 40 40 39 39 38 37 33 30 29 29 28 27 26 27 27 27 27 28 29 28 26 24 23
31 34 37 39 40 39 37 34 32 31 31 32 34 35 35 38 40 40 41 41 41 40 40 39 37 33 32 31 30 29 28 28 29 29 29 29 29 30 29 27 25 24
31 34 37 39 40 40 40 38 36 34 32 32 33 35 37 38 40 41 42 42 42 42 41 40 37 34 33 33 32 30 30 31 32 31 31 30 30 30 29 27 27 25
32 35 37 38 40 41 42 41 39 37 35 34 34 36 38 38 39 41 42 42 42 43 42 41 38 36 35 34 33 31 31 33 34 34 33 31 31 31 29 28 28 26
33 34 35 37 39 41 43 44 43 40 38 36 36 37 38 39 40 41 42 43 43 43 42 41 39 37 36 34 33 33 34 35 36 36 34 32 31 31 30 29 29 29
30 32 33 34 37 40 43 44 45 43 41 39 39 39 40 41 41 41 42 43 44 43 43 42 41 38 36 35 34 35 36 37 38 37 36 33 31 31 31 31 30 30
25 25 26 28 31 35 39 41 44 45 43 41 41 41 41 41 41 41 42 43 44 43 42 42 41 39 36 35 36 37 38 39 39 38 37 34 32 32 32 32 31 31
22 21 22 25 27 29 33 37 40 43 45 44 43 42 43 43 43 43 43 44 44 43 42 42 41 40 38 37 38 39 40 41 41 40 37 34 33 33 33 33 32 32
23 22 22 25 26 27 29 33 36 40 44 46 46 45 44 44 44 45 45 44 44 43 43 42 42 41 40 40 41 42 42 42 42 39 37 35 34 34 34 34 33 32
Wind_Direction
231 232 234 237 240 242 245 249 251 249 240 225 218 218 218 217 216 217 214 208 201 197 198 199 197 196 195 195 195 195 196 200 206 218 248 341 1 360 0 3 4 2
233 232 233 236 239 241 244 248 250 252 248 234 220 215 214 213 212 213 211 207 203 200 201 201 199 200 201 203 206 205 206 215 228 240 260 289 314 327 336 346 351 351
234 234 234 235 238 242 245 247 249 250 248 239 225 215 213 210 209 211 209 206 204 203 204 203 201 202 205 209 212 213 217 227 238 247 261 279 296 306 313 327 337 339
236 236 235 235 237 241 244 246 247 247 245 238 228 219 214 210 208 209 208 206 205 206 207 206 203 204 208 213 216 220 226 235 244 254 268 279 288 297 303 312 322 325
238 238 237 236 236 239 242 245 245 244 241 237 229 222 217 212 209 208 206 205 205 207 209 207 205 206 210 214 218 223 231 239 249 260 271 278 284 291 297 304 312 315
238 238 238 237 236 238 240 243 245 242 239 235 229 223 218 214 211 209 206 205 206 208 209 208 206 207 211 214 218 224 232 241 252 261 270 276 281 288 294 300 304 307
238 238 238 238 237 237 238 240 241 239 236 233 228 223 219 215 213 211 208 206 207 208 209 208 207 209 212 216 219 226 233 242 252 260 269 275 279 286 293 297 299 300
238 240 240 239 238 236 236 237 237 236 234 230 225 223 220 216 214 212 210 208 207 208 208 208 208 211 216 220 223 228 234 242 251 259 268 274 278 285 290 293 295 297
239 242 241 240 238 235 234 234 234 234 232 227 223 221 220 217 215 214 212 209 207 207 206 207 209 214 219 224 227 230 235 243 251 259 266 271 277 282 287 291 293 295
240 243 243 242 238 235 233 232 232 232 229 225 222 220 220 217 215 215 214 211 208 206 205 206 209 215 222 227 230 233 238 244 251 256 262 269 274 279 285 289 291 293
238 241 242 242 241 238 234 230 230 230 226 223 219 219 219 217 215 215 214 212 209 207 207 207 210 215 221 226 229 234 238 243 248 254 260 266 272 277 282 286 288 289
237 240 241 242 242 241 237 231 228 227 224 219 217 217 219 218 216 215 214 213 211 210 210 211 213 217 221 224 228 232 236 240 246 253 260 266 271 276 279 282 285 286
236 240 242 243 242 243 241 236 229 226 223 218 215 216 218 218 216 215 215 213 212 213 213 214 216 219 221 224 227 230 234 240 247 254 260 265 269 273 276 278 281 283
235 238 242 243 243 242 242 240 233 226 222 218 215 216 218 218 217 216 215 214 213 215 216 217 220 221 222 224 226 230 235 242 250 256 260 264 267 269 271 273 277 283
235 236 238 240 242 240 240 240 235 228 223 219 217 217 218 218 217 216 216 215 214 216 218 220 222 222 223 225 227 232 238 246 252 256 260 263 265 266 267 271 276 284
236 236 236 237 240 240 238 238 236 231 225 220 218 217 217 219 218 216 216 216 216 217 220 223 224 223 223 224 228 234 240 248 252 256 260 261 263 264 265 269 277 284
239 238 236 236 238 239 237 236 235 232 228 223 220 219 218 219 220 218 217 217 218 218 222 225 225 224 223 225 229 235 241 248 252 256 259 260 262 264 263 268 279 283
239 239 236 234 235 237 237 235 233 232 230 226 223 221 221 221 222 222 220 219 220 220 223 226 225 224 225 226 231 236 243 249 253 256 258 260 263 264 263 268 278 278
239 238 236 234 233 234 235 234 232 231 229 228 226 224 224 224 224 224 223 223 222 222 224 227 225 224 226 228 232 238 244 250 253 255 258 260 265 265 263 269 278 280
240 238 236 234 234 233 233 233 232 231 229 228 227 226 226 226 225 225 226 226 225 224 225 226 225 224 226 229 233 239 245 251 254 256 258 261 266 267 264 270 281 283
240 238 236 234 234 233 232 232 232 231 229 228 227 227 228 228 227 227 227 228 227 226 226 226 226 226 227 230 234 240 246 251 254 256 258 262 268 267 263 268 282 287
242 240 238 236 234 234 233 231 231 230 229 228 227 228 229 228 228 228 228 229 228 227 227 227 227 227 228 230 234 240 247 251 254 257 258 262 267 266 261 265 277 286
244 242 240 237 235 235 235 233 231 230 230 228 228 228 229 229 229 230 230 230 229 228 228 228 228 228 229 230 235 241 246 250 254 257 258 261 266 264 259 263 273 282
245 244 246 245 244 243 242 238 234 231 230 230 229 229 230 230 231 231 232 232 231 230 229 229 230 230 230 232 236 241 246 249 252 255 257 261 266 264 259 262 271 280
253 252 252 255 257 255 252 247 241 235 232 231 231 231 231 231 230 231 233 234 233 232 230 230 231 231 231 234 237 241 244 247 250 253 257 261 266 266 260 261 269 277
259 260 257 256 257 259 259 254 246 239 234 232 232 232 232 231 231 231 232 234 235 233 232 232 232 233 233 235 238 240 243 246 249 253 258 263 267 265 259 261 269 276